STARLINK-1732 (46584 NORAD) Tracking and Keplerian Element Data

This shows tracking and keplerian element data for the satellite.

Feedback or suggestion? Click here.




ElementValue
Catalog46584
NameSTARLINK-1732
Epoch Orbit176
Epoch Day304.91667824
Epoch Year2020
RAAN321.8882
Inclination53.0015
Eccentricity0.0001117
Argument of Perigee86.0065
Mean Anonmoly195.774
Mean Motion15.62678175
Decay Rate-3.43E-05
L11 46584U 20070BE 20304.91667824 -.00003430 00000-0 -31742-4 0 9991
L22 46584 53.0015 321.8882 0001117 86.0065 195.7740 15.62678175 1765

Live tracking and technical data element details for STARLINK-1732 (NORAD 46584). STARLINK-1732 can be tracked NOW for your location showing map with azimuth and elevation plus other details from your city location.

Track the satellite on the map from your city or location and see movement details for azimuth, elevation, latitude, longitude, range, height, and movement on the map or in text.







IsCatalogInMostPopularTable: catalog: 46584, numindb: 3
Update: records affected: 1



GetName: 46584 STARLINK-1732

Hit Count: updated at: Sat, 31 Oct 2020 11:22:07 GMT